Tabellarische Ansicht des 15.2.2018


Die einzelnen Werte des Tages

Uhrzeit Temperatur Luftdruck Luftfeuchte Wind Hi-Wind Taupunkt THW Index Wind Chill Heat Index Solar- strahlung Regen

00:00

1.2 C

1014.0 hpa

64 %

14.5 km/h aus 117

27.4 km/h aus SE

-4.8 C

-3.1 C

-2.8 C

0.9 C

0 W/m

0.00 mm

00:05

1.3 C

1014.0 hpa

64 %

17.7 km/h aus 114

29.0 km/h aus ESE

-4.8 C

-3.6 C

-3.3 C

0.9 C

0 W/m

0.00 mm

00:10

1.3 C

1014.0 hpa

63 %

19.3 km/h aus 118

30.6 km/h aus SE

-4.9 C

-3.8 C

-3.4 C

1.0 C

0 W/m

0.00 mm

00:15

1.3 C

1013.8 hpa

63 %

9.7 km/h aus 114

19.3 km/h aus E

-4.9 C

-1.9 C

-1.6 C

1.0 C

0 W/m

0.00 mm

00:20

1.4 C

1013.8 hpa

63 %

17.7 km/h aus 115

29.0 km/h aus SE

-4.9 C

-3.4 C

-3.1 C

1.1 C

0 W/m

0.00 mm

00:25

1.4 C

1013.8 hpa

63 %

12.9 km/h aus 116

30.6 km/h aus SE

-4.9 C

-2.6 C

-2.3 C

1.1 C

0 W/m

0.00 mm

00:30

1.4 C

1013.8 hpa

63 %

8.0 km/h aus 116

22.5 km/h aus ESE

-4.9 C

-1.4 C

-1.1 C

1.1 C

0 W/m

0.00 mm

00:35

1.4 C

1013.8 hpa

63 %

16.1 km/h aus 117

24.1 km/h aus SE

-4.9 C

-3.2 C

-2.9 C

1.1 C

0 W/m

0.00 mm

00:40

1.4 C

1013.8 hpa

63 %

12.9 km/h aus 117

24.1 km/h aus E

-4.9 C

-2.6 C

-2.3 C

1.1 C

0 W/m

0.00 mm

00:45

1.4 C

1013.9 hpa

64 %

9.7 km/h aus 117

16.1 km/h aus ESE

-4.7 C

-1.9 C

-1.6 C

1.1 C

0 W/m

0.00 mm

00:50

1.3 C

1013.9 hpa

63 %

12.9 km/h aus 116

22.5 km/h aus ESE

-4.9 C

-2.7 C

-2.3 C

1.0 C

0 W/m

0.00 mm

00:55

1.3 C

1013.9 hpa

63 %

11.3 km/h aus 114

24.1 km/h aus SE

-4.9 C

-2.3 C

-2.0 C

1.0 C

0 W/m

0.00 mm

01:00

1.3 C

1013.6 hpa

63 %

8.0 km/h aus 115

19.3 km/h aus SE

-4.9 C

-1.5 C

-1.2 C

1.0 C

0 W/m

0.00 mm

01:05

1.3 C

1013.6 hpa

63 %

8.0 km/h aus 115

16.1 km/h aus SE

-5.0 C

-1.6 C

-1.2 C

0.9 C

0 W/m

0.00 mm

01:10

1.3 C

1013.6 hpa

63 %

11.3 km/h aus 117

22.5 km/h aus ESE

-5.0 C

-2.4 C

-2.1 C

0.9 C

0 W/m

0.00 mm

01:15

1.3 C

1013.4 hpa

63 %

12.9 km/h aus 118

25.7 km/h aus ESE

-4.9 C

-2.7 C

-2.3 C

1.0 C

0 W/m

0.00 mm

01:20

1.3 C

1013.4 hpa

64 %

14.5 km/h aus 117

25.7 km/h aus SE

-4.7 C

-3.0 C

-2.7 C

1.0 C

0 W/m

0.00 mm

01:25

1.3 C

1013.4 hpa

64 %

17.7 km/h aus 117

29.0 km/h aus SE

-4.7 C

-3.6 C

-3.2 C

1.0 C

0 W/m

0.00 mm

01:30

1.4 C

1013.2 hpa

64 %

16.1 km/h aus 114

29.0 km/h aus SE

-4.7 C

-3.2 C

-2.9 C

1.1 C

0 W/m

0.00 mm

01:35

1.4 C

1013.2 hpa

64 %

19.3 km/h aus 115

29.0 km/h aus SE

-4.7 C

-3.7 C

-3.4 C

1.1 C

0 W/m

0.00 mm

01:40

1.4 C

1013.2 hpa

64 %

19.3 km/h aus 115

27.4 km/h aus ESE

-4.6 C

-3.6 C

-3.3 C

1.1 C

0 W/m

0.00 mm

01:45

1.4 C

1013.6 hpa

64 %

17.7 km/h aus 117

30.6 km/h aus SSE

-4.6 C

-3.4 C

-3.1 C

1.1 C

0 W/m

0.00 mm

01:50

1.5 C

1013.6 hpa

63 %

20.9 km/h aus 117

30.6 km/h aus ESE

-4.8 C

-3.8 C

-3.4 C

1.2 C

0 W/m

0.00 mm

01:55

1.5 C

1013.6 hpa

63 %

20.9 km/h aus 117

33.8 km/h aus SE

-4.8 C

-3.8 C

-3.4 C

1.2 C

0 W/m

0.00 mm

02:00

1.5 C

1013.6 hpa

63 %

17.7 km/h aus 117

25.7 km/h aus SE

-4.8 C

-3.3 C

-3.0 C

1.2 C

0 W/m

0.00 mm

02:05

1.6 C

1013.6 hpa

63 %

19.3 km/h aus 115

27.4 km/h aus SE

-4.7 C

-3.5 C

-3.2 C

1.2 C

0 W/m

0.00 mm

02:10

1.6 C

1013.6 hpa

63 %

17.7 km/h aus 113

29.0 km/h aus SE

-4.7 C

-3.3 C

-2.9 C

1.2 C

0 W/m

0.00 mm

02:15

1.6 C

1013.3 hpa

63 %

16.1 km/h aus 114

24.1 km/h aus SE

-4.7 C

-3.0 C

-2.7 C

1.2 C

0 W/m

0.00 mm

02:20

1.6 C

1013.3 hpa

63 %

17.7 km/h aus 118

27.4 km/h aus SE

-4.7 C

-3.3 C

-2.9 C

1.2 C

0 W/m

0.00 mm

02:25

1.6 C

1013.3 hpa

63 %

20.9 km/h aus 117

33.8 km/h aus SE

-4.7 C

-3.7 C

-3.4 C

1.2 C

0 W/m

0.00 mm

02:30

1.6 C

1013.0 hpa

63 %

22.5 km/h aus 117

33.8 km/h aus ESE

-4.7 C

-3.9 C

-3.6 C

1.2 C

0 W/m

0.00 mm

02:35

1.6 C

1013.0 hpa

63 %

20.9 km/h aus 117

33.8 km/h aus SE

-4.7 C

-3.7 C

-3.4 C

1.2 C

0 W/m

0.00 mm

02:40

1.6 C

1013.0 hpa

63 %

22.5 km/h aus 117

30.6 km/h aus ESE

-4.7 C

-3.9 C

-3.6 C

1.2 C

0 W/m

0.00 mm

02:45

1.6 C

1012.8 hpa

63 %

24.1 km/h aus 114

35.4 km/h aus SE

-4.7 C

-4.1 C

-3.8 C

1.2 C

0 W/m

0.00 mm

02:50

1.6 C

1012.8 hpa

63 %

24.1 km/h aus 114

33.8 km/h aus SE

-4.7 C

-4.1 C

-3.8 C

1.2 C

0 W/m

0.00 mm

02:55

1.6 C

1012.8 hpa

63 %

25.7 km/h aus 117

35.4 km/h aus SE

-4.7 C

-4.2 C

-3.9 C

1.3 C

0 W/m

0.00 mm

03:00

1.6 C

1012.4 hpa

64 %

24.1 km/h aus 117

38.6 km/h aus SE

-4.5 C

-4.1 C

-3.7 C

1.3 C

0 W/m

0.00 mm

03:05

1.6 C

1012.4 hpa

63 %

29.0 km/h aus 117

41.8 km/h aus SE

-4.7 C

-4.6 C

-4.2 C

1.3 C

0 W/m

0.00 mm

03:10

1.6 C

1012.4 hpa

63 %

32.2 km/h aus 117

45.1 km/h aus SE

-4.7 C

-4.9 C

-4.6 C

1.3 C

0 W/m

0.00 mm

03:15

1.7 C

1012.1 hpa

63 %

30.6 km/h aus 116

41.8 km/h aus SE

-4.6 C

-4.7 C

-4.3 C

1.3 C

0 W/m

0.00 mm

03:20

1.7 C

1012.1 hpa

63 %

27.4 km/h aus 115

35.4 km/h aus SE

-4.6 C

-4.3 C

-4.0 C

1.3 C

0 W/m

0.00 mm

03:25

1.6 C

1012.1 hpa

63 %

29.0 km/h aus 114

38.6 km/h aus ESE

-4.7 C

-4.6 C

-4.2 C

1.3 C

0 W/m

0.00 mm

03:30

1.6 C

1012.1 hpa

64 %

29.0 km/h aus 114

37.0 km/h aus SE

-4.5 C

-4.6 C

-4.2 C

1.3 C

0 W/m

0.00 mm

03:35

1.6 C

1012.1 hpa

63 %

30.6 km/h aus 117

43.5 km/h aus SE

-4.7 C

-4.7 C

-4.4 C

1.3 C

0 W/m

0.00 mm

03:40

1.7 C

1012.1 hpa

63 %

29.0 km/h aus 117

35.4 km/h aus SE

-4.6 C

-4.5 C

-4.2 C

1.3 C

0 W/m

0.00 mm

03:45

1.7 C

1011.9 hpa

63 %

29.0 km/h aus 117

40.2 km/h aus SE

-4.6 C

-4.5 C

-4.2 C

1.3 C

0 W/m

0.00 mm

03:50

1.7 C

1011.9 hpa

62 %

25.7 km/h aus 117

35.4 km/h aus SE

-4.8 C

-4.2 C

-3.8 C

1.3 C

0 W/m

0.00 mm

03:55

1.6 C

1011.9 hpa

62 %

25.7 km/h aus 117

38.6 km/h aus SE

-4.9 C

-4.3 C

-3.9 C

1.2 C

0 W/m

0.00 mm

04:00

1.6 C

1011.8 hpa

62 %

22.5 km/h aus 112

33.8 km/h aus SE

-4.9 C

-3.9 C

-3.5 C

1.2 C

0 W/m

0.00 mm

04:05

1.6 C

1011.8 hpa

63 %

22.5 km/h aus 114

29.0 km/h aus SE

-4.7 C

-3.8 C

-3.5 C

1.3 C

0 W/m

0.00 mm

04:10

1.6 C

1011.8 hpa

62 %

25.7 km/h aus 117

37.0 km/h aus ESE

-4.9 C

-4.3 C

-3.9 C

1.2 C

0 W/m

0.00 mm

04:15

1.7 C

1011.6 hpa

62 %

22.5 km/h aus 117

33.8 km/h aus SE

-4.8 C

-3.8 C

-3.4 C

1.3 C

0 W/m

0.00 mm

04:20

1.7 C

1011.6 hpa

61 %

24.1 km/h aus 116

33.8 km/h aus ESE

-5.0 C

-3.9 C

-3.6 C

1.3 C

0 W/m

0.00 mm

04:25

1.7 C

1011.6 hpa

61 %

24.1 km/h aus 117

33.8 km/h aus ESE

-5.0 C

-3.9 C

-3.6 C

1.3 C

0 W/m

0.00 mm

04:30

1.7 C

1011.5 hpa

61 %

22.5 km/h aus 117

35.4 km/h aus ESE

-5.0 C

-3.8 C

-3.4 C

1.3 C

0 W/m

0.00 mm

04:35

1.7 C

1011.5 hpa

61 %

19.3 km/h aus 114

29.0 km/h aus ESE

-5.0 C

-3.3 C

-2.9 C

1.3 C

0 W/m

0.00 mm

04:40

1.7 C

1011.5 hpa

61 %

19.3 km/h aus 114

32.2 km/h aus SE

-5.0 C

-3.3 C

-2.9 C

1.3 C

0 W/m

0.00 mm

04:45

1.8 C

1011.5 hpa

61 %

20.9 km/h aus 116

32.2 km/h aus ESE

-5.0 C

-3.5 C

-3.1 C

1.4 C

0 W/m

0.00 mm

04:50

1.8 C

1011.5 hpa

61 %

16.1 km/h aus 115

22.5 km/h aus ESE

-5.0 C

-2.8 C

-2.4 C

1.4 C

0 W/m

0.00 mm

04:55

1.8 C

1011.5 hpa

61 %

16.1 km/h aus 117

27.4 km/h aus SE

-5.0 C

-2.8 C

-2.4 C

1.4 C

0 W/m

0.00 mm

05:00

1.8 C

1011.5 hpa

61 %

17.7 km/h aus 117

27.4 km/h aus ESE

-5.0 C

-3.1 C

-2.7 C

1.4 C

0 W/m

0.00 mm

05:05

1.8 C

1011.5 hpa

61 %

19.3 km/h aus 117

30.6 km/h aus SE

-4.9 C

-3.2 C

-2.8 C

1.4 C

0 W/m

0.00 mm

05:10

1.8 C

1011.5 hpa

61 %

19.3 km/h aus 114

33.8 km/h aus SE

-4.9 C

-3.2 C

-2.8 C

1.4 C

0 W/m

0.00 mm

05:15

1.9 C

1011.2 hpa

61 %

20.9 km/h aus 113

37.0 km/h aus ESE

-4.8 C

-3.3 C

-2.9 C

1.5 C

0 W/m

0.00 mm

05:20

1.9 C

1011.2 hpa

60 %

19.3 km/h aus 116

32.2 km/h aus ESE

-5.0 C

-3.1 C

-2.7 C

1.6 C

0 W/m

0.00 mm

05:25

1.9 C

1011.2 hpa

59 %

17.7 km/h aus 116

27.4 km/h aus SE

-5.2 C

-2.9 C

-2.4 C

1.5 C

0 W/m

0.00 mm

05:30

2.0 C

1010.8 hpa

60 %

20.9 km/h aus 116

32.2 km/h aus ESE

-5.0 C

-3.3 C

-2.8 C

1.6 C

0 W/m

0.00 mm

05:35

2.0 C

1010.8 hpa

59 %

17.7 km/h aus 118

37.0 km/h aus ESE

-5.2 C

-2.8 C

-2.4 C

1.6 C

0 W/m

0.00 mm

05:40

2.0 C

1010.8 hpa

59 %

17.7 km/h aus 116

33.8 km/h aus ESE

-5.2 C

-2.8 C

-2.4 C

1.6 C

0 W/m

0.00 mm

05:45

2.1 C

1010.7 hpa

59 %

17.7 km/h aus 116

33.8 km/h aus ESE

-5.1 C

-2.7 C

-2.3 C

1.6 C

0 W/m

0.00 mm

05:50

2.1 C

1010.7 hpa

59 %

20.9 km/h aus 114

35.4 km/h aus SE

-5.1 C

-3.2 C

-2.8 C

1.6 C

0 W/m

0.00 mm

05:55

2.1 C

1010.7 hpa

58 %

22.5 km/h aus 116

38.6 km/h aus SE

-5.4 C

-3.4 C

-2.9 C

1.6 C

0 W/m

0.00 mm

06:00

2.1 C

1010.4 hpa

58 %

24.1 km/h aus 115

43.5 km/h aus E

-5.4 C

-3.6 C

-3.2 C

1.6 C

0 W/m

0.00 mm

06:05

2.1 C

1010.4 hpa

57 %

22.5 km/h aus 117

41.8 km/h aus ESE

-5.5 C

-3.3 C

-2.9 C

1.7 C

0 W/m

0.00 mm

06:10

2.2 C

1010.4 hpa

58 %

17.7 km/h aus 115

29.0 km/h aus ESE

-5.3 C

-2.6 C

-2.2 C

1.7 C

0 W/m

0.00 mm

06:15

2.2 C

1010.2 hpa

58 %

19.3 km/h aus 117

27.4 km/h aus SE

-5.3 C

-2.8 C

-2.4 C

1.7 C

0 W/m

0.00 mm

06:20

2.1 C

1010.2 hpa

58 %

20.9 km/h aus 116

29.0 km/h aus SSW

-5.3 C

-3.1 C

-2.7 C

1.7 C

0 W/m

0.00 mm

06:25

2.2 C

1010.2 hpa

58 %

19.3 km/h aus 113

25.7 km/h aus SE

-5.3 C

-2.8 C

-2.4 C

1.7 C

0 W/m

0.00 mm

06:30

2.2 C

1010.2 hpa

57 %

20.9 km/h aus 114

30.6 km/h aus SSE

-5.5 C

-3.1 C

-2.6 C

1.7 C

0 W/m

0.00 mm

06:35

2.2 C

1010.2 hpa

58 %

22.5 km/h aus 115

38.6 km/h aus SSE

-5.3 C

-3.3 C

-2.8 C

1.7 C

0 W/m

0.00 mm

06:40

2.2 C

1010.2 hpa

58 %

22.5 km/h aus 117

38.6 km/h aus SE

-5.3 C

-3.3 C

-2.8 C

1.7 C

0 W/m

0.00 mm

06:45

2.2 C

1010.1 hpa

58 %

25.7 km/h aus 117

38.6 km/h aus SE

-5.3 C

-3.6 C

-3.2 C

1.7 C

0 W/m

0.00 mm

06:50

2.2 C

1010.1 hpa

58 %

29.0 km/h aus 117

40.2 km/h aus SE

-5.3 C

-3.9 C

-3.5 C

1.7 C

0 W/m

0.00 mm

06:55

2.2 C

1010.1 hpa

58 %

27.4 km/h aus 116

37.0 km/h aus SSE

-5.3 C

-3.8 C

-3.4 C

1.7 C

0 W/m

0.00 mm

07:00

2.2 C

1010.2 hpa

59 %

25.7 km/h aus 113

37.0 km/h aus SE

-5.0 C

-3.6 C

-3.2 C

1.7 C

0 W/m

0.00 mm

07:05

2.2 C

1010.2 hpa

58 %

30.6 km/h aus 115

43.5 km/h aus SSE

-5.3 C

-4.1 C

-3.7 C

1.7 C

0 W/m

0.00 mm

07:10

2.2 C

1010.2 hpa

59 %

30.6 km/h aus 117

43.5 km/h aus SSE

-5.0 C

-4.1 C

-3.6 C

1.8 C

0 W/m

0.00 mm

07:15

2.2 C

1010.1 hpa

59 %

33.8 km/h aus 116

45.1 km/h aus SE

-5.0 C

-4.3 C

-3.9 C

1.8 C

0 W/m

0.00 mm

07:20

2.2 C

1010.1 hpa

58 %

32.2 km/h aus 116

46.7 km/h aus SE

-5.2 C

-4.2 C

-3.8 C

1.8 C

0 W/m

0.00 mm

07:25

2.2 C

1010.1 hpa

59 %

29.0 km/h aus 117

38.6 km/h aus SSE

-5.0 C

-3.9 C

-3.4 C

1.8 C

0 W/m

0.00 mm

07:30

2.2 C

1010.2 hpa

59 %

30.6 km/h aus 116

45.1 km/h aus SSE

-5.0 C

-4.1 C

-3.6 C

1.8 C

0 W/m

0.00 mm

07:35

2.2 C

1010.2 hpa

59 %

32.2 km/h aus 113

45.1 km/h aus SE

-5.0 C

-4.2 C

-3.8 C

1.8 C

0 W/m

0.00 mm

07:40

2.2 C

1010.2 hpa

59 %

27.4 km/h aus 115

40.2 km/h aus SE

-5.0 C

-3.8 C

-3.4 C

1.7 C

0 W/m

0.00 mm

07:45

2.2 C

1010.1 hpa

59 %

33.8 km/h aus 117

43.5 km/h aus SE

-5.0 C

-4.4 C

-4.0 C

1.7 C

0 W/m

0.00 mm

07:50

2.2 C

1010.1 hpa

59 %

30.6 km/h aus 117

40.2 km/h aus SE

-5.0 C

-4.1 C

-3.7 C

1.7 C

5 W/m

0.00 mm

07:55

2.2 C

1010.1 hpa

59 %

32.2 km/h aus 117

43.5 km/h aus SE

-5.0 C

-4.3 C

-3.8 C

1.7 C

5 W/m

0.00 mm

08:00

2.2 C

1010.0 hpa

59 %

32.2 km/h aus 117

46.7 km/h aus ESE

-5.0 C

-4.2 C

-3.8 C

1.8 C

7 W/m

0.00 mm

08:05

2.2 C

1010.0 hpa

59 %

27.4 km/h aus 116

37.0 km/h aus ESE

-5.0 C

-3.7 C

-3.3 C

1.8 C

9 W/m

0.00 mm

08:10

2.2 C

1010.0 hpa

59 %

30.6 km/h aus 113

43.5 km/h aus SE

-5.0 C

-4.1 C

-3.6 C

1.8 C

11 W/m

0.00 mm

08:15

2.2 C

1010.0 hpa

59 %

27.4 km/h aus 115

37.0 km/h aus ESE

-5.0 C

-3.7 C

-3.3 C

1.8 C

13 W/m

0.00 mm

08:20

2.2 C

1010.0 hpa

59 %

24.1 km/h aus 117

35.4 km/h aus SE

-5.0 C

-3.4 C

-2.9 C

1.8 C

16 W/m

0.00 mm

08:25

2.2 C

1010.0 hpa

59 %

24.1 km/h aus 117

33.8 km/h aus SE

-5.0 C

-3.4 C

-2.9 C

1.8 C

18 W/m

0.00 mm

08:30

2.2 C

1009.9 hpa

59 %

27.4 km/h aus 116

38.6 km/h aus SE

-5.0 C

-3.7 C

-3.3 C

1.8 C

21 W/m

0.00 mm

08:35

2.2 C

1009.9 hpa

59 %

27.4 km/h aus 117

38.6 km/h aus SE

-5.0 C

-3.7 C

-3.3 C

1.8 C

23 W/m

0.00 mm

08:40

2.3 C

1009.9 hpa

59 %

22.5 km/h aus 116

30.6 km/h aus SE

-4.9 C

-3.1 C

-2.7 C

1.8 C

23 W/m

0.00 mm

08:45

2.3 C

1010.0 hpa

59 %

22.5 km/h aus 115

32.2 km/h aus SE

-4.9 C

-3.1 C

-2.7 C

1.8 C

21 W/m

0.00 mm

08:50

2.3 C

1010.0 hpa

60 %

24.1 km/h aus 113

37.0 km/h aus SE

-4.7 C

-3.3 C

-2.9 C

1.8 C

22 W/m

0.00 mm

08:55

2.3 C

1010.0 hpa

60 %

25.7 km/h aus 118

33.8 km/h aus SE

-4.7 C

-3.5 C

-3.1 C

1.8 C

26 W/m

0.00 mm

09:00

2.3 C

1010.0 hpa

60 %

20.9 km/h aus 116

30.6 km/h aus SE

-4.7 C

-2.9 C

-2.5 C

1.8 C

27 W/m

0.00 mm

09:05

2.3 C

1010.0 hpa

61 %

20.9 km/h aus 116

35.4 km/h aus ESE

-4.5 C

-2.9 C

-2.5 C

1.8 C

30 W/m

0.00 mm

09:10

2.3 C

1010.0 hpa

62 %

24.1 km/h aus 117

33.8 km/h aus ESE

-4.3 C

-3.3 C

-2.9 C

1.8 C

33 W/m

0.00 mm

09:15

2.3 C

1009.9 hpa

63 %

22.5 km/h aus 116

30.6 km/h aus ESE

-4.0 C

-3.1 C

-2.7 C

1.9 C

32 W/m

0.00 mm

09:20

2.2 C

1009.9 hpa

64 %

24.1 km/h aus 114

33.8 km/h aus SE

-3.9 C

-3.3 C

-2.9 C

1.8 C

25 W/m

0.00 mm

09:25

2.2 C

1009.9 hpa

66 %

24.1 km/h aus 114

33.8 km/h aus SSE

-3.5 C

-3.3 C

-2.9 C

1.8 C

22 W/m

0.00 mm

09:30

2.2 C

1009.8 hpa

68 %

20.9 km/h aus 116

33.8 km/h aus SE

-3.1 C

-2.9 C

-2.6 C

1.8 C

23 W/m

0.00 mm

09:35

2.1 C

1009.8 hpa

71 %

24.1 km/h aus 116

37.0 km/h aus SE

-2.6 C

-3.3 C

-3.1 C

1.8 C

24 W/m

0.00 mm

09:40

1.9 C

1009.8 hpa

73 %

32.2 km/h aus 117

40.2 km/h aus SE

-2.4 C

-4.4 C

-4.1 C

1.7 C

28 W/m

0.00 mm

09:45

1.8 C

1009.8 hpa

75 %

24.1 km/h aus 117

38.6 km/h aus SE

-2.2 C

-3.7 C

-3.5 C

1.6 C

31 W/m

0.00 mm

09:50

1.6 C

1009.8 hpa

77 %

25.7 km/h aus 116

38.6 km/h aus SE

-2.0 C

-4.1 C

-3.9 C

1.4 C

31 W/m

0.00 mm

09:55

1.6 C

1009.8 hpa

78 %

19.3 km/h aus 115

27.4 km/h aus SE

-1.9 C

-3.4 C

-3.2 C

1.3 C

28 W/m

0.00 mm

10:00

1.4 C

1009.8 hpa

79 %

22.5 km/h aus 115

33.8 km/h aus SE

-1.8 C

-3.9 C

-3.7 C

1.2 C

31 W/m

0.00 mm

10:05

1.3 C

1009.8 hpa

80 %

24.1 km/h aus 115

35.4 km/h aus SE

-1.7 C

-4.3 C

-4.1 C

1.1 C

49 W/m

0.00 mm

10:10

1.3 C

1009.8 hpa

81 %

24.1 km/h aus 117

38.6 km/h aus SE

-1.6 C

-4.4 C

-4.2 C

1.1 C

65 W/m

0.00 mm

10:15

1.3 C

1009.7 hpa

81 %

24.1 km/h aus 117

33.8 km/h aus SE

-1.6 C

-4.4 C

-4.2 C

1.1 C

71 W/m

0.00 mm

10:20

1.2 C

1009.7 hpa

82 %

25.7 km/h aus 117

35.4 km/h aus SE

-1.5 C

-4.6 C

-4.4 C

1.1 C

66 W/m

0.00 mm

10:25

1.2 C

1009.7 hpa

82 %

24.1 km/h aus 117

33.8 km/h aus SE

-1.5 C

-4.4 C

-4.2 C

1.1 C

70 W/m

0.00 mm

10:30

1.2 C

1009.4 hpa

83 %

24.1 km/h aus 115

41.8 km/h aus SE

-1.3 C

-4.4 C

-4.2 C

1.1 C

75 W/m

0.00 mm

10:35

1.2 C

1009.4 hpa

83 %

24.1 km/h aus 114

33.8 km/h aus SE

-1.3 C

-4.4 C

-4.2 C

1.1 C

73 W/m

0.00 mm

10:40

1.3 C

1009.4 hpa

83 %

25.7 km/h aus 116

48.3 km/h aus SE

-1.3 C

-4.5 C

-4.3 C

1.1 C

69 W/m

0.00 mm

10:45

1.3 C

1009.4 hpa

83 %

25.7 km/h aus 116

35.4 km/h aus SE

-1.3 C

-4.5 C

-4.3 C

1.1 C

68 W/m

0.00 mm

10:50

1.3 C

1009.4 hpa

83 %

29.0 km/h aus 116

40.2 km/h aus SE

-1.3 C

-4.8 C

-4.7 C

1.1 C

67 W/m

0.00 mm

10:55

1.3 C

1009.4 hpa

83 %

22.5 km/h aus 117

30.6 km/h aus SE

-1.2 C

-4.1 C

-3.9 C

1.2 C

59 W/m

0.00 mm

11:00

1.3 C

1009.4 hpa

83 %

17.7 km/h aus 117

29.0 km/h aus SSE

-1.2 C

-3.4 C

-3.2 C

1.2 C

57 W/m

0.00 mm

11:05

1.4 C

1009.4 hpa

83 %

20.9 km/h aus 116

32.2 km/h aus SE

-1.2 C

-3.8 C

-3.6 C

1.2 C

58 W/m

0.00 mm

11:10

1.4 C

1009.4 hpa

83 %

20.9 km/h aus 115

30.6 km/h aus SE

-1.2 C

-3.8 C

-3.6 C

1.2 C

64 W/m

0.00 mm

11:15

1.4 C

1009.4 hpa

83 %

25.7 km/h aus 115

37.0 km/h aus SE

-1.1 C

-4.3 C

-4.1 C

1.3 C

58 W/m

0.00 mm

11:20

1.4 C

1009.4 hpa

83 %

24.1 km/h aus 116

35.4 km/h aus SE

-1.1 C

-4.1 C

-3.9 C

1.3 C

59 W/m

0.00 mm

11:25

1.4 C

1009.4 hpa

83 %

24.1 km/h aus 117

32.2 km/h aus SE

-1.1 C

-4.1 C

-3.9 C

1.3 C

64 W/m

0.00 mm

11:30

1.4 C

1009.2 hpa

83 %

22.5 km/h aus 117

33.8 km/h aus ESE

-1.1 C

-3.9 C

-3.7 C

1.3 C

61 W/m

0.00 mm

11:35

1.4 C

1009.2 hpa

83 %

22.5 km/h aus 116

33.8 km/h aus SSE

-1.1 C

-3.9 C

-3.7 C

1.3 C

64 W/m

0.00 mm

11:40

1.5 C

1009.2 hpa

83 %

25.7 km/h aus 116

37.0 km/h aus SE

-1.1 C

-4.2 C

-4.1 C

1.3 C

65 W/m

0.00 mm

11:45

1.6 C

1009.2 hpa

83 %

27.4 km/h aus 113

38.6 km/h aus SSE

-1.0 C

-4.3 C

-4.2 C

1.4 C

70 W/m

0.00 mm

11:50

1.6 C

1009.2 hpa

83 %

25.7 km/h aus 113

35.4 km/h aus SE

-1.0 C

-4.2 C

-4.0 C

1.4 C

71 W/m

0.00 mm

11:55

1.6 C

1009.2 hpa

83 %

20.9 km/h aus 117

30.6 km/h aus ESE

-1.0 C

-3.6 C

-3.4 C

1.4 C

76 W/m

0.00 mm

12:00

1.6 C

1009.0 hpa

84 %

24.1 km/h aus 116

40.2 km/h aus SE

-0.9 C

-3.9 C

-3.8 C

1.4 C

78 W/m

0.00 mm

12:05

1.6 C

1009.0 hpa

84 %

25.7 km/h aus 115

35.4 km/h aus SE

-0.8 C

-4.0 C

-3.9 C

1.5 C

78 W/m

0.00 mm

12:10

1.7 C

1009.0 hpa

84 %

25.7 km/h aus 116

38.6 km/h aus SE

-0.7 C

-3.9 C

-3.8 C

1.6 C

80 W/m

0.00 mm

12:15

1.7 C

1008.9 hpa

83 %

25.7 km/h aus 114

35.4 km/h aus SSE

-0.9 C

-3.9 C

-3.8 C

1.6 C

77 W/m

0.00 mm

12:20

1.7 C

1008.9 hpa

83 %

20.9 km/h aus 114

30.6 km/h aus SE

-0.9 C

-3.3 C

-3.2 C

1.6 C

62 W/m

0.00 mm

12:25

1.8 C

1008.9 hpa

83 %

22.5 km/h aus 114

30.6 km/h aus SE

-0.8 C

-3.4 C

-3.3 C

1.7 C

55 W/m

0.00 mm

12:30

1.7 C

1008.9 hpa

83 %

20.9 km/h aus 116

29.0 km/h aus ESE

-0.9 C

-3.3 C

-3.2 C

1.6 C

74 W/m

0.00 mm

12:35

1.7 C

1008.9 hpa

84 %

25.7 km/h aus 116

35.4 km/h aus SE

-0.7 C

-3.9 C

-3.8 C

1.6 C

73 W/m

0.00 mm

12:40

1.6 C

1008.9 hpa

85 %

24.1 km/h aus 116

32.2 km/h aus SE

-0.7 C

-3.9 C

-3.8 C

1.4 C

75 W/m

0.00 mm

12:45

1.4 C

1008.8 hpa

86 %

22.5 km/h aus 115

30.6 km/h aus SE

-0.6 C

-3.8 C

-3.7 C

1.3 C

80 W/m

0.00 mm

12:50

1.3 C

1008.8 hpa

87 %

20.9 km/h aus 116

29.0 km/h aus SE

-0.6 C

-3.8 C

-3.7 C

1.2 C

93 W/m

0.00 mm

12:55

1.3 C

1008.8 hpa

87 %

24.1 km/h aus 116

35.4 km/h aus SSE

-0.6 C

-4.2 C

-4.1 C

1.2 C

92 W/m

0.25 mm

13:00

1.4 C

1008.8 hpa

87 %

24.1 km/h aus 114

29.0 km/h aus SE

-0.5 C

-4.1 C

-4.0 C

1.3 C

98 W/m

0.00 mm

13:05

1.4 C

1008.8 hpa

87 %

22.5 km/h aus 114

29.0 km/h aus SSE

-0.5 C

-3.9 C

-3.8 C

1.3 C

95 W/m

0.00 mm

13:10

1.4 C

1008.8 hpa

88 %

20.9 km/h aus 116

29.0 km/h aus ESE

-0.4 C

-3.7 C

-3.6 C

1.3 C

89 W/m

0.00 mm

13:15

1.4 C

1008.8 hpa

88 %

17.7 km/h aus 117

24.1 km/h aus SE

-0.4 C

-3.2 C

-3.1 C

1.3 C

75 W/m

0.00 mm

13:20

1.4 C

1008.8 hpa

88 %

14.5 km/h aus 116

24.1 km/h aus SE

-0.4 C

-2.7 C

-2.6 C

1.3 C

76 W/m

0.25 mm

13:25

1.4 C

1008.8 hpa

88 %

19.3 km/h aus 117

27.4 km/h aus SE

-0.4 C

-3.5 C

-3.4 C

1.3 C

81 W/m

0.00 mm

13:30

1.4 C

1008.5 hpa

88 %

24.1 km/h aus 117

32.2 km/h aus SSE

-0.4 C

-4.1 C

-4.0 C

1.3 C

74 W/m

0.00 mm

13:35

1.4 C

1008.5 hpa

88 %

22.5 km/h aus 115

37.0 km/h aus SSE

-0.3 C

-3.8 C

-3.7 C

1.3 C

81 W/m

0.00 mm

13:40

1.5 C

1008.5 hpa

88 %

17.7 km/h aus 112

29.0 km/h aus SE

-0.3 C

-3.1 C

-3.0 C

1.4 C

85 W/m

0.00 mm

13:45

1.6 C

1008.4 hpa

88 %

20.9 km/h aus 113

27.4 km/h aus SSE

-0.2 C

-3.5 C

-3.4 C

1.4 C

83 W/m

0.00 mm

13:50

1.6 C

1008.4 hpa

88 %

20.9 km/h aus 117

25.7 km/h aus ESE

-0.2 C

-3.4 C

-3.3 C

1.6 C

69 W/m

0.00 mm

13:55

1.7 C

1008.4 hpa

87 %

20.9 km/h aus 116

30.6 km/h aus SSE

-0.3 C

-3.3 C

-3.2 C

1.6 C

61 W/m

0.00 mm

14:00

1.7 C

1008.3 hpa

87 %

17.7 km/h aus 117

24.1 km/h aus SE

-0.3 C

-2.9 C

-2.8 C

1.6 C

62 W/m

0.00 mm

14:05

1.7 C

1008.3 hpa

87 %

16.1 km/h aus 117

25.7 km/h aus SE

-0.2 C

-2.6 C

-2.4 C

1.6 C

65 W/m

0.00 mm

14:10

1.7 C

1008.3 hpa

87 %

14.5 km/h aus 117

19.3 km/h aus SE

-0.2 C

-2.3 C

-2.2 C

1.6 C

64 W/m

0.00 mm

14:15

1.8 C

1008.4 hpa

87 %

17.7 km/h aus 114

25.7 km/h aus SSE

-0.2 C

-2.8 C

-2.7 C

1.7 C

66 W/m

0.00 mm

14:20

1.8 C

1008.4 hpa

87 %

19.3 km/h aus 115

29.0 km/h aus SSE

-0.1 C

-2.9 C

-2.8 C

1.7 C

60 W/m

0.00 mm

14:25

1.9 C

1008.4 hpa

87 %

17.7 km/h aus 116

24.1 km/h aus SE

0.0 C

-2.6 C

-2.5 C

1.8 C

54 W/m

0.00 mm

14:30

1.9 C

1008.5 hpa

87 %

16.1 km/h aus 117

20.9 km/h aus SE

0.0 C

-2.4 C

-2.3 C

1.8 C

50 W/m

0.00 mm

14:35

1.9 C

1008.5 hpa

87 %

16.1 km/h aus 117

22.5 km/h aus SSE

0.0 C

-2.3 C

-2.2 C

1.8 C

53 W/m

0.00 mm

14:40

1.9 C

1008.5 hpa

87 %

14.5 km/h aus 117

19.3 km/h aus SE

0.0 C

-2.0 C

-1.9 C

1.8 C

62 W/m

0.00 mm

14:45

1.9 C

1008.7 hpa

87 %

16.1 km/h aus 117

25.7 km/h aus SE

0.0 C

-2.3 C

-2.2 C

1.8 C

60 W/m

0.00 mm

14:50

2.0 C

1008.7 hpa

87 %

17.7 km/h aus 116

24.1 km/h aus SSE

0.1 C

-2.5 C

-2.4 C

1.9 C

34 W/m

0.00 mm

14:55

2.0 C

1008.7 hpa

87 %

16.1 km/h aus 114

22.5 km/h aus SSE

0.1 C

-2.2 C

-2.1 C

1.9 C

40 W/m

0.00 mm

15:00

2.0 C

1008.7 hpa

87 %

16.1 km/h aus 115

22.5 km/h aus SE

0.1 C

-2.2 C

-2.1 C

1.9 C

29 W/m

0.00 mm

15:05

2.0 C

1008.7 hpa

87 %

14.5 km/h aus 117

19.3 km/h aus SSE

0.1 C

-1.9 C

-1.8 C

1.9 C

20 W/m

0.00 mm

15:10

2.1 C

1008.7 hpa

87 %

11.3 km/h aus 117

16.1 km/h aus SE

0.1 C

-1.2 C

-1.1 C

1.9 C

18 W/m

0.00 mm

15:15

2.1 C

1008.9 hpa

87 %

6.4 km/h aus 117

9.7 km/h aus SE

0.1 C

0.1 C

0.2 C

1.9 C

18 W/m

0.00 mm

15:20

2.1 C

1008.9 hpa

87 %

4.8 km/h aus 117

11.3 km/h aus SE

0.1 C

0.7 C

0.8 C

1.9 C

19 W/m

0.00 mm

15:25

2.1 C

1008.9 hpa

87 %

6.4 km/h aus 117

9.7 km/h aus SE

0.1 C

0.1 C

0.2 C

1.9 C

19 W/m

0.00 mm

15:30

2.1 C

1008.9 hpa

87 %

9.7 km/h aus 115

16.1 km/h aus SSE

0.1 C

-0.9 C

-0.8 C

1.9 C

19 W/m

0.00 mm

15:35

2.1 C

1008.9 hpa

87 %

9.7 km/h aus 114

16.1 km/h aus SE

0.1 C

-0.9 C

-0.8 C

1.9 C

17 W/m

0.00 mm

15:40

2.1 C

1008.9 hpa

87 %

8.0 km/h aus 117

16.1 km/h aus SE

0.1 C

-0.4 C

-0.3 C

1.9 C

19 W/m

0.00 mm

15:45

2.1 C

1008.9 hpa

88 %

6.4 km/h aus 117

11.3 km/h aus SE

0.3 C

0.2 C

0.2 C

2.0 C

16 W/m

0.00 mm

15:50

2.1 C

1008.9 hpa

88 %

8.0 km/h aus 117

11.3 km/h aus SE

0.3 C

-0.4 C

-0.3 C

2.0 C

12 W/m

0.25 mm

15:55

2.1 C

1008.9 hpa

88 %

11.3 km/h aus 117

17.7 km/h aus SE

0.3 C

-1.2 C

-1.1 C

2.0 C

14 W/m

0.00 mm

16:00

2.1 C

1008.9 hpa

88 %

11.3 km/h aus 117

16.1 km/h aus SSE

0.3 C

-1.2 C

-1.1 C

2.0 C

19 W/m

0.00 mm

16:05

2.1 C

1008.9 hpa

89 %

11.3 km/h aus 114

16.1 km/h aus SE

0.4 C

-1.2 C

-1.1 C

2.0 C

15 W/m

0.00 mm

16:10

2.1 C

1008.9 hpa

89 %

12.9 km/h aus 113

19.3 km/h aus SE

0.4 C

-1.5 C

-1.4 C

2.0 C

10 W/m

0.00 mm

16:15

2.1 C

1008.9 hpa

90 %

9.7 km/h aus 115

16.1 km/h aus SE

0.6 C

-0.8 C

-0.8 C

2.0 C

14 W/m

0.00 mm

16:20

2.1 C

1008.9 hpa

90 %

8.0 km/h aus 117

12.9 km/h aus ESE

0.6 C

-0.4 C

-0.3 C

2.0 C

12 W/m

0.00 mm

16:25

2.1 C

1008.9 hpa

90 %

8.0 km/h aus 117

16.1 km/h aus SE

0.6 C

-0.4 C

-0.3 C

2.0 C

8 W/m

0.00 mm

16:30

2.1 C

1009.1 hpa

90 %

6.4 km/h aus 118

9.7 km/h aus ESE

0.6 C

0.2 C

0.2 C

2.0 C

5 W/m

0.25 mm

16:35

2.1 C

1009.1 hpa

90 %

8.0 km/h aus 117

16.1 km/h aus SE

0.6 C

-0.4 C

-0.3 C

2.0 C

7 W/m

0.00 mm

16:40

2.1 C

1009.1 hpa

90 %

6.4 km/h aus 117

11.3 km/h aus ESE

0.6 C

0.2 C

0.2 C

2.0 C

12 W/m

0.00 mm

16:45

2.1 C

1009.2 hpa

91 %

8.0 km/h aus 114

14.5 km/h aus SE

0.7 C

-0.4 C

-0.3 C

2.0 C

7 W/m

0.00 mm

16:50

2.1 C

1009.2 hpa

91 %

8.0 km/h aus 114

14.5 km/h aus ESE

0.7 C

-0.4 C

-0.3 C

2.0 C

3 W/m

0.00 mm

16:55

2.1 C

1009.2 hpa

91 %

8.0 km/h aus 114

14.5 km/h aus SE

0.7 C

-0.4 C

-0.3 C

2.0 C

5 W/m

0.00 mm

17:00

2.1 C

1009.4 hpa

91 %

8.0 km/h aus 117

14.5 km/h aus SE

0.7 C

-0.4 C

-0.3 C

2.0 C

5 W/m

0.00 mm

17:05

2.1 C

1009.4 hpa

91 %

11.3 km/h aus 117

16.1 km/h aus SE

0.7 C

-1.2 C

-1.1 C

2.0 C

0 W/m

0.00 mm

17:10

2.1 C

1009.4 hpa

91 %

14.5 km/h aus 117

17.7 km/h aus SSE

0.7 C

-1.8 C

-1.8 C

2.0 C

0 W/m

0.00 mm

17:15

2.1 C

1009.4 hpa

92 %

14.5 km/h aus 117

17.7 km/h aus SE

0.9 C

-1.8 C

-1.8 C

2.0 C

0 W/m

0.00 mm

17:20

2.1 C

1009.4 hpa

92 %

14.5 km/h aus 114

19.3 km/h aus SE

0.9 C

-1.8 C

-1.7 C

2.1 C

0 W/m

0.00 mm

17:25

2.1 C

1009.4 hpa

92 %

11.3 km/h aus 114

16.1 km/h aus SSE

0.9 C

-1.1 C

-1.1 C

2.1 C

0 W/m

0.00 mm

17:30

2.2 C

1009.6 hpa

92 %

14.5 km/h aus 117

22.5 km/h aus SE

1.0 C

-1.7 C

-1.6 C

2.1 C

0 W/m

0.00 mm

17:35

2.3 C

1009.6 hpa

92 %

11.3 km/h aus 118

17.7 km/h aus SSE

1.1 C

-0.9 C

-0.9 C

2.2 C

0 W/m

0.00 mm

17:40

2.3 C

1009.6 hpa

92 %

9.7 km/h aus 117

16.1 km/h aus SE

1.2 C

-0.5 C

-0.4 C

2.3 C

0 W/m

0.00 mm

17:45

2.3 C

1009.8 hpa

92 %

8.0 km/h aus 117

11.3 km/h aus SE

1.2 C

-0.1 C

0.0 C

2.3 C

0 W/m

0.00 mm

17:50

2.4 C

1009.8 hpa

92 %

6.4 km/h aus 116

11.3 km/h aus S

1.2 C

0.5 C

0.6 C

2.3 C

0 W/m

0.00 mm

17:55

2.4 C

1009.8 hpa

92 %

8.0 km/h aus 116

16.1 km/h aus S

1.2 C

0.0 C

0.1 C

2.3 C

0 W/m

0.00 mm

18:00

2.4 C

1009.9 hpa

93 %

9.7 km/h aus 113

14.5 km/h aus SSE

1.4 C

-0.3 C

-0.3 C

2.4 C

0 W/m

0.00 mm

18:05

2.6 C

1009.9 hpa

93 %

9.7 km/h aus 116

16.1 km/h aus SSW

1.5 C

-0.2 C

-0.2 C

2.6 C

0 W/m

0.00 mm

18:10

2.7 C

1009.9 hpa

93 %

8.0 km/h aus 117

17.7 km/h aus S

1.6 C

0.4 C

0.4 C

2.7 C

0 W/m

0.00 mm

18:15

2.8 C

1010.0 hpa

93 %

8.0 km/h aus 117

20.9 km/h aus S

1.8 C

0.6 C

0.6 C

2.8 C

0 W/m

0.00 mm

18:20

2.9 C

1010.0 hpa

93 %

11.3 km/h aus 117

19.3 km/h aus S

1.9 C

-0.1 C

-0.1 C

2.9 C

0 W/m

0.00 mm

18:25

3.1 C

1010.0 hpa

93 %

12.9 km/h aus 116

20.9 km/h aus SSW

2.1 C

-0.2 C

-0.2 C

3.1 C

0 W/m

0.00 mm

18:30

3.3 C

1010.2 hpa

93 %

11.3 km/h aus 115

20.9 km/h aus S

2.3 C

0.3 C

0.3 C

3.3 C

0 W/m

0.00 mm

18:35

3.3 C

1010.2 hpa

93 %

12.9 km/h aus 113

20.9 km/h aus SSE

2.3 C

0.1 C

0.1 C

3.3 C

0 W/m

0.00 mm

18:40

3.4 C

1010.2 hpa

93 %

12.9 km/h aus 117

25.7 km/h aus S

2.4 C

0.2 C

0.2 C

3.4 C

0 W/m

0.00 mm

18:45

3.4 C

1010.4 hpa

93 %

14.5 km/h aus 117

22.5 km/h aus SSE

2.4 C

-0.1 C

-0.1 C

3.4 C

0 W/m

0.00 mm

18:50

3.5 C

1010.4 hpa

93 %

14.5 km/h aus 117

20.9 km/h aus S

2.5 C

0.0 C

0.0 C

3.5 C

0 W/m

0.00 mm

18:55

3.5 C

1010.4 hpa

93 %

14.5 km/h aus 117

20.9 km/h aus S

2.5 C

0.0 C

0.0 C

3.5 C

0 W/m

0.00 mm

19:00

3.6 C

1010.4 hpa

93 %

12.9 km/h aus 117

19.3 km/h aus S

2.5 C

0.3 C

0.3 C

3.6 C

0 W/m

0.00 mm

19:05

3.6 C

1010.4 hpa

93 %

11.3 km/h aus 116

17.7 km/h aus S

2.5 C

0.7 C

0.7 C

3.6 C

0 W/m

0.00 mm

19:10

3.7 C

1010.4 hpa

93 %

9.7 km/h aus 114

20.9 km/h aus SSW

2.6 C

1.2 C

1.2 C

3.7 C

0 W/m

0.00 mm

19:15

3.7 C

1010.5 hpa

93 %

9.7 km/h aus 115

17.7 km/h aus SSW

2.7 C

1.2 C

1.2 C

3.7 C

0 W/m

0.00 mm

19:20

3.8 C

1010.5 hpa

94 %

8.0 km/h aus 117

14.5 km/h aus SSW

3.0 C

1.8 C

1.8 C

3.8 C

0 W/m

0.00 mm

19:25

3.9 C

1010.5 hpa

94 %

9.7 km/h aus 117

19.3 km/h aus SSW

3.1 C

1.5 C

1.5 C

3.9 C

0 W/m

0.00 mm

19:30

4.1 C

1010.6 hpa

94 %

12.9 km/h aus 117

19.3 km/h aus S

3.2 C

0.9 C

0.9 C

4.1 C

0 W/m

0.00 mm

19:35

4.1 C

1010.6 hpa

93 %

11.3 km/h aus 117

17.7 km/h aus S

3.1 C

1.3 C

1.3 C

4.1 C

0 W/m

0.00 mm

19:40

4.2 C

1010.6 hpa

93 %

11.3 km/h aus 114

19.3 km/h aus S

3.1 C

1.4 C

1.4 C

4.2 C

0 W/m

0.00 mm

19:45

4.2 C

1010.9 hpa

94 %

11.3 km/h aus 114

17.7 km/h aus SSW

3.3 C

1.4 C

1.4 C

4.2 C

0 W/m

0.00 mm

19:50

4.2 C

1010.9 hpa

94 %

11.3 km/h aus 116

19.3 km/h aus SSW

3.3 C

1.5 C

1.5 C

4.2 C

0 W/m

0.00 mm

19:55

4.3 C

1010.9 hpa

94 %

14.5 km/h aus 117

27.4 km/h aus SSW

3.4 C

0.9 C

0.9 C

4.3 C

0 W/m

0.00 mm

20:00

4.3 C

1011.0 hpa

94 %

11.3 km/h aus 117

20.9 km/h aus SSW

3.5 C

1.6 C

1.6 C

4.3 C

0 W/m

0.00 mm

20:05

4.4 C

1011.0 hpa

94 %

11.3 km/h aus 116

17.7 km/h aus S

3.5 C

1.7 C

1.7 C

4.4 C

0 W/m

0.00 mm

20:10

4.4 C

1011.0 hpa

94 %

12.9 km/h aus 116

24.1 km/h aus SSW

3.6 C

1.5 C

1.4 C

4.5 C

0 W/m

0.00 mm

20:15

4.5 C

1011.3 hpa

93 %

14.5 km/h aus 114

22.5 km/h aus SSW

3.5 C

1.2 C

1.2 C

4.5 C

0 W/m

0.00 mm

20:20

4.6 C

1011.3 hpa

94 %

12.9 km/h aus 115

20.9 km/h aus SSW

3.7 C

1.6 C

1.6 C

4.6 C

0 W/m

0.00 mm

20:25

4.6 C

1011.3 hpa

94 %

11.3 km/h aus 117

22.5 km/h aus SSW

3.7 C

2.0 C

1.9 C

4.7 C

0 W/m

0.00 mm

20:30

4.7 C

1011.4 hpa

94 %

12.9 km/h aus 117

22.5 km/h aus SW

3.8 C

1.8 C

1.7 C

4.7 C

0 W/m

0.00 mm

20:35

4.7 C

1011.4 hpa

94 %

11.3 km/h aus 116

17.7 km/h aus SSW

3.8 C

2.1 C

2.0 C

4.7 C

0 W/m

0.00 mm

20:40

4.7 C

1011.4 hpa

94 %

8.0 km/h aus 117

16.1 km/h aus WSW

3.8 C

2.8 C

2.7 C

4.7 C

0 W/m

0.00 mm

20:45

4.7 C

1011.7 hpa

94 %

8.0 km/h aus 115

14.5 km/h aus SSW

3.8 C

2.8 C

2.7 C

4.7 C

0 W/m

0.00 mm

20:50

4.7 C

1011.7 hpa

94 %

8.0 km/h aus 115

16.1 km/h aus WSW

3.8 C

2.9 C

2.8 C

4.8 C

0 W/m

0.00 mm

20:55

4.7 C

1011.7 hpa

94 %

9.7 km/h aus 117

19.3 km/h aus W

3.8 C

2.4 C

2.4 C

4.8 C

0 W/m

0.00 mm

21:00

4.7 C

1012.0 hpa

94 %

8.0 km/h aus 116

14.5 km/h aus SSW

3.8 C

2.9 C

2.8 C

4.8 C

0 W/m

0.00 mm

21:05

4.7 C

1012.0 hpa

93 %

6.4 km/h aus 117

14.5 km/h aus SW

3.7 C

3.3 C

3.3 C

4.7 C

0 W/m

0.00 mm

21:10

4.7 C

1012.0 hpa

93 %

8.0 km/h aus 117

14.5 km/h aus SW

3.7 C

2.8 C

2.8 C

4.7 C

0 W/m

0.00 mm

21:15

4.7 C

1012.2 hpa

93 %

8.0 km/h aus 116

16.1 km/h aus SW

3.7 C

2.8 C

2.8 C

4.7 C

0 W/m

0.00 mm

21:20

4.7 C

1012.2 hpa

93 %

8.0 km/h aus 114

14.5 km/h aus SW

3.7 C

2.8 C

2.8 C

4.7 C

0 W/m

0.00 mm

21:25

4.7 C

1012.2 hpa

93 %

8.0 km/h aus 116

14.5 km/h aus SSW

3.7 C

2.8 C

2.8 C

4.7 C

0 W/m

0.00 mm

21:30

4.7 C

1012.3 hpa

93 %

8.0 km/h aus 117

16.1 km/h aus SSW

3.6 C

2.7 C

2.7 C

4.7 C

0 W/m

0.00 mm

21:35

4.6 C

1012.3 hpa

93 %

6.4 km/h aus 117

11.3 km/h aus SSW

3.6 C

3.2 C

3.2 C

4.6 C

0 W/m

0.00 mm

21:40

4.6 C

1012.3 hpa

93 %

4.8 km/h aus 117

14.5 km/h aus WSW

3.5 C

3.7 C

3.7 C

4.6 C

0 W/m

0.00 mm

21:45

4.4 C

1012.5 hpa

93 %

6.4 km/h aus 117

9.7 km/h aus SW

3.4 C

2.9 C

2.9 C

4.4 C

0 W/m

0.00 mm

21:50

4.3 C

1012.5 hpa

93 %

4.8 km/h aus 115

9.7 km/h aus SW

3.3 C

3.4 C

3.4 C

4.3 C

0 W/m

0.00 mm

21:55

4.2 C

1012.5 hpa

93 %

4.8 km/h aus 116

9.7 km/h aus SSW

3.2 C

3.3 C

3.3 C

4.2 C

0 W/m

0.00 mm

22:00

4.1 C

1012.6 hpa

93 %

4.8 km/h aus 116

9.7 km/h aus SSW

3.0 C

3.1 C

3.1 C

4.1 C

0 W/m

0.00 mm

22:05

3.9 C

1012.6 hpa

92 %

4.8 km/h aus 117

8.0 km/h aus SSW

2.7 C

2.8 C

2.9 C

3.8 C

0 W/m

0.00 mm

22:10

3.7 C

1012.6 hpa

92 %

4.8 km/h aus 117

8.0 km/h aus SSW

2.5 C

2.7 C

2.7 C

3.7 C

0 W/m

0.00 mm

22:15

3.6 C

1012.7 hpa

92 %

3.2 km/h aus 117

6.4 km/h aus SSW

2.4 C

3.3 C

3.3 C

3.5 C

0 W/m

0.00 mm

22:20

3.3 C

1012.7 hpa

92 %

4.8 km/h aus 117

6.4 km/h aus SSW

2.2 C

2.2 C

2.3 C

3.3 C

0 W/m

0.00 mm

22:25

3.1 C

1012.7 hpa

92 %

6.4 km/h aus 115

8.0 km/h aus SSW

1.9 C

1.3 C

1.3 C

3.0 C

0 W/m

0.00 mm

22:30

2.8 C

1013.0 hpa

91 %

4.8 km/h aus 114

8.0 km/h aus SSW

1.5 C

1.6 C

1.7 C

2.7 C

0 W/m

0.00 mm

22:35

2.6 C

1013.0 hpa

91 %

6.4 km/h aus 116

8.0 km/h aus SSW

1.2 C

0.7 C

0.8 C

2.5 C

0 W/m

0.00 mm

22:40

2.4 C

1013.0 hpa

91 %

4.8 km/h aus 117

8.0 km/h aus SSW

1.1 C

1.2 C

1.2 C

2.3 C

0 W/m

0.00 mm

22:45

2.3 C

1013.1 hpa

91 %

6.4 km/h aus 117

9.7 km/h aus SSW

1.0 C

0.4 C

0.4 C

2.2 C

0 W/m

0.00 mm

22:50

2.1 C

1013.1 hpa

92 %

4.8 km/h aus 115

8.0 km/h aus SSW

0.9 C

0.8 C

0.9 C

2.1 C

0 W/m

0.00 mm

22:55

2.1 C

1013.1 hpa

92 %

6.4 km/h aus 117

9.7 km/h aus SSW

0.9 C

0.2 C

0.2 C

2.0 C

0 W/m

0.00 mm

23:00

2.2 C

1013.4 hpa

92 %

4.8 km/h aus 117

9.7 km/h aus SSW

1.0 C

0.9 C

0.9 C

2.1 C

0 W/m

0.00 mm

23:05

2.3 C

1013.4 hpa

93 %

4.8 km/h aus 115

8.0 km/h aus SSW

1.3 C

1.1 C

1.1 C

2.3 C

0 W/m

0.00 mm

23:10

2.3 C

1013.4 hpa

93 %

4.8 km/h aus 114

9.7 km/h aus SSW

1.3 C

1.2 C

1.2 C

2.3 C

0 W/m

0.00 mm

23:15

2.3 C

1013.6 hpa

93 %

4.8 km/h aus 116

8.0 km/h aus SSW

1.3 C

1.2 C

1.2 C

2.3 C

0 W/m

0.00 mm

23:20

2.4 C

1013.6 hpa

93 %

3.2 km/h aus 117

8.0 km/h aus SSW

1.4 C

2.1 C

2.1 C

2.4 C

0 W/m

0.00 mm

23:25

2.5 C

1013.6 hpa

93 %

3.2 km/h aus 117

4.8 km/h aus SSW

1.5 C

2.2 C

2.2 C

2.5 C

0 W/m

0.00 mm

23:30

2.5 C

1013.8 hpa

93 %

4.8 km/h aus 117

6.4 km/h aus SSW

1.5 C

1.3 C

1.3 C

2.5 C

0 W/m

0.00 mm

23:35

2.6 C

1013.8 hpa

94 %

4.8 km/h aus 117

8.0 km/h aus SSW

1.7 C

1.4 C

1.4 C

2.6 C

0 W/m

0.00 mm

23:40

2.6 C

1013.8 hpa

94 %

4.8 km/h aus 117

8.0 km/h aus SSW

1.7 C

1.4 C

1.4 C

2.6 C

0 W/m

0.00 mm

23:45

2.7 C

1014.1 hpa

94 %

4.8 km/h aus 111

9.7 km/h aus SSW

1.8 C

1.5 C

1.5 C

2.7 C

0 W/m

0.00 mm

23:50

2.7 C

1014.1 hpa

94 %

4.8 km/h aus 115

9.7 km/h aus SW

1.8 C

1.5 C

1.5 C

2.7 C

0 W/m

0.00 mm

23:55

2.8 C

1014.1 hpa

94 %

4.8 km/h aus 117

9.7 km/h aus SW

1.9 C

1.7 C

1.7 C

2.8 C

0 W/m

0.00 mm